Time,TemperatureF,DewpointF,PressureIn,WindDirection,WindDirectionDegrees,WindSpeedMPH,WindSpeedGustMPH,Humidity,HourlyPrecipIn,Conditions,Clouds,dailyrainin,SoftwareType,DateUTC
2013-01-08 00:02:00,53.0,46.0,30.22,ENE,61,0.0,0.0,76,0.00,,,0.00,,2013-01-08 06:02:00,
2013-01-08 00:12:00,53.0,46.0,30.22,ENE,61,0.0,0.0,76,0.00,,,0.00,,2013-01-08 06:12:00,
2013-01-08 00:22:00,53.0,46.0,30.22,ENE,61,0.0,0.0,77,0.00,,,0.00,,2013-01-08 06:22:00,
2013-01-08 00:32:00,52.0,45.0,30.22,ENE,61,0.0,0.0,78,0.00,,,0.00,,2013-01-08 06:32:00,
2013-01-08 00:42:00,52.0,45.0,30.22,ENE,61,0.0,0.0,78,0.00,,,0.00,,2013-01-08 06:42:00,
2013-01-08 00:52:00,52.0,46.0,30.21,ENE,61,0.0,0.0,79,0.00,,,0.00,,2013-01-08 06:52:00,
2013-01-08 01:02:00,52.0,46.0,30.19,East,82,3.0,7.0,80,0.00,,,0.00,,2013-01-08 07:02:00,
2013-01-08 01:12:00,52.0,46.0,30.19,East,82,3.0,7.0,80,0.00,,,0.00,,2013-01-08 07:12:00,
2013-01-08 01:22:00,52.0,46.0,30.19,ESE,115,2.0,6.0,81,0.00,,,0.00,,2013-01-08 07:22:00,
2013-01-08 01:32:00,52.0,47.0,30.19,East,96,1.0,8.0,82,0.00,,,0.00,,2013-01-08 07:32:00,
2013-01-08 01:42:00,52.0,47.0,30.19,East,96,1.0,8.0,82,0.00,,,0.00,,2013-01-08 07:42:00,
2013-01-08 01:52:00,53.0,48.0,30.18,ESE,118,3.0,7.0,82,0.00,,,0.00,,2013-01-08 07:52:00,
2013-01-08 02:02:00,53.0,48.0,30.17,ESE,121,2.0,9.0,83,0.00,,,0.00,,2013-01-08 08:02:00,
2013-01-08 02:12:00,53.0,48.0,30.17,ESE,121,2.0,9.0,83,0.00,,,0.00,,2013-01-08 08:12:00,
2013-01-08 02:22:00,53.0,48.0,30.17,SE,129,2.0,7.0,84,0.00,,,0.00,,2013-01-08 08:22:00,
2013-01-08 02:32:00,53.0,48.0,30.17,SE,135,3.0,8.0,84,0.00,,,0.00,,2013-01-08 08:32:00,
2013-01-08 02:42:00,53.0,48.0,30.17,SE,135,3.0,8.0,84,0.00,,,0.00,,2013-01-08 08:42:00,
2013-01-08 02:52:00,53.0,48.0,30.18,SE,134,2.0,6.0,84,0.00,,,0.00,,2013-01-08 08:52:00,
2013-01-08 03:02:00,53.0,48.0,30.18,East,91,0.0,6.0,84,0.00,,,0.00,,2013-01-08 09:02:00,
2013-01-08 03:12:00,53.0,48.0,30.18,East,86,1.0,5.0,84,0.00,,,0.00,,2013-01-08 09:12:00,
2013-01-08 03:22:00,53.0,48.0,30.18,East,86,1.0,5.0,84,0.00,,,0.00,,2013-01-08 09:22:00,
2013-01-08 03:32:00,53.0,49.0,30.17,East,101,0.0,2.0,85,0.00,,,0.00,,2013-01-08 09:32:00,
2013-01-08 03:42:00,53.0,49.0,30.17,East,101,0.0,2.0,85,0.00,,,0.00,,2013-01-08 09:42:00,
2013-01-08 03:52:00,52.0,48.0,30.16,ESE,117,2.0,6.0,85,0.00,,,0.00,,2013-01-08 09:52:00,
2013-01-08 04:02:00,53.0,48.0,30.16,East,99,3.0,8.0,84,0.00,,,0.00,,2013-01-08 10:02:00,
2013-01-08 04:12:00,53.0,48.0,30.16,East,99,3.0,8.0,84,0.00,,,0.00,,2013-01-08 10:12:00,
2013-01-08 04:22:00,53.0,48.0,30.16,East,97,1.0,6.0,83,0.00,,,0.00,,2013-01-08 10:22:00,
2013-01-08 04:32:00,53.0,48.0,30.16,East,88,1.0,5.0,84,0.00,,,0.00,,2013-01-08 10:32:00,
2013-01-08 04:42:00,53.0,48.0,30.16,East,88,1.0,5.0,84,0.00,,,0.00,,2013-01-08 10:42:00,
2013-01-08 04:52:00,53.0,48.0,30.15,ESE,115,1.0,6.0,84,0.00,,,0.00,,2013-01-08 10:52:00,
2013-01-08 05:02:00,52.0,47.0,30.16,ENE,64,0.0,6.0,84,0.00,,,0.00,,2013-01-08 11:02:00,
2013-01-08 05:12:00,52.0,47.0,30.16,ENE,64,0.0,6.0,84,0.00,,,0.00,,2013-01-08 11:12:00,
2013-01-08 05:22:00,52.0,47.0,30.16,ENE,64,0.0,6.0,84,0.00,,,0.00,,2013-01-08 11:22:00,
2013-01-08 05:32:00,52.0,48.0,30.16,SE,126,1.0,3.0,85,0.00,,,0.00,,2013-01-08 11:32:00,
2013-01-08 05:42:00,52.0,48.0,30.16,SE,126,1.0,3.0,85,0.00,,,0.00,,2013-01-08 11:42:00,
2013-01-08 05:53:00,52.0,48.0,30.16,SE,127,1.0,5.0,85,0.00,,,0.00,,2013-01-08 11:53:00,
2013-01-08 06:02:00,52.0,47.0,30.16,NE,34,2.0,7.0,84,0.00,,,0.00,,2013-01-08 12:02:00,
2013-01-08 06:12:00,52.0,47.0,30.16,NE,34,2.0,7.0,84,0.00,,,0.00,,2013-01-08 12:12:00,
2013-01-08 06:22:00,53.0,48.0,30.15,East,87,3.0,6.0,83,0.00,,,0.00,,2013-01-08 12:22:00,
2013-01-08 06:32:00,53.0,48.0,30.16,East,89,3.0,8.0,83,0.00,,,0.00,,2013-01-08 12:32:00,
2013-01-08 06:42:00,53.0,48.0,30.16,East,89,3.0,8.0,83,0.00,,,0.00,,2013-01-08 12:42:00,
2013-01-08 06:53:00,53.0,47.0,30.16,SE,132,3.0,7.0,81,0.00,,,0.00,,2013-01-08 12:53:00,
2013-01-08 07:03:00,53.0,48.0,30.17,ESE,106,2.0,6.0,82,0.00,,,0.00,,2013-01-08 13:03:00,
2013-01-08 07:12:00,53.0,48.0,30.17,ESE,106,2.0,6.0,82,0.00,,,0.00,,2013-01-08 13:12:00,
2013-01-08 07:22:00,53.0,48.0,30.17,ENE,64,2.0,8.0,82,0.00,,,0.00,,2013-01-08 13:22:00,
2013-01-08 07:32:00,53.0,48.0,30.17,ESE,107,0.0,6.0,82,0.00,,,0.00,,2013-01-08 13:32:00,
2013-01-08 07:42:00,53.0,48.0,30.17,ESE,107,0.0,6.0,82,0.00,,,0.00,,2013-01-08 13:42:00,
2013-01-08 07:53:00,53.0,48.0,30.19,East,92,0.0,6.0,84,0.00,,,0.00,,2013-01-08 13:53:00,
2013-01-08 08:02:00,53.0,48.0,30.19,East,95,2.0,6.0,83,0.00,,,0.00,,2013-01-08 14:02:00,
2013-01-08 08:12:00,53.0,48.0,30.19,East,95,2.0,6.0,83,0.00,,,0.00,,2013-01-08 14:12:00,
2013-01-08 08:23:00,54.0,49.0,30.19,East,98,3.0,8.0,82,0.00,,,0.00,,2013-01-08 14:23:00,
2013-01-08 08:33:00,54.0,48.0,30.19,SE,144,3.0,9.0,81,0.00,,,0.00,,2013-01-08 14:33:00,
2013-01-08 08:42:00,54.0,48.0,30.19,SE,144,3.0,9.0,81,0.00,,,0.00,,2013-01-08 14:42:00,
2013-01-08 08:53:00,55.0,50.0,30.19,ESE,122,5.0,10.0,82,0.00,,,0.00,,2013-01-08 14:53:00,
2013-01-08 09:02:00,55.0,50.0,30.20,ESE,116,2.0,8.0,82,0.00,,,0.00,,2013-01-08 15:02:00,
2013-01-08 09:12:00,55.0,50.0,30.20,ESE,116,2.0,8.0,82,0.00,,,0.00,,2013-01-08 15:12:00,
2013-01-08 09:22:00,56.0,51.0,30.20,ESE,119,3.0,9.0,82,0.00,,,0.00,,2013-01-08 15:22:00,
2013-01-08 09:33:00,56.0,51.0,30.20,SE,131,3.0,8.0,83,0.00,,,0.00,,2013-01-08 15:33:00,
2013-01-08 09:42:00,56.0,51.0,30.20,SE,131,3.0,8.0,83,0.00,,,0.00,,2013-01-08 15:42:00,
2013-01-08 09:53:00,57.0,52.0,30.22,SSE,148,4.0,10.0,83,0.00,,,0.00,,2013-01-08 15:53:00,
2013-01-08 10:03:00,57.0,52.0,30.21,SE,125,5.0,12.0,84,0.00,,,0.00,,2013-01-08 16:03:00,
2013-01-08 10:12:00,57.0,52.0,30.21,SE,125,5.0,12.0,84,0.00,,,0.00,,2013-01-08 16:12:00,
2013-01-08 10:22:00,56.0,52.0,30.21,ESE,121,6.0,10.0,88,0.00,,,0.00,,2013-01-08 16:22:00,
2013-01-08 10:33:00,56.0,53.0,30.21,ESE,121,5.0,12.0,89,0.00,,,0.00,,2013-01-08 16:33:00,
2013-01-08 10:42:00,56.0,53.0,30.21,ESE,121,5.0,12.0,89,0.00,,,0.00,,2013-01-08 16:42:00,
2013-01-08 10:53:00,56.0,54.0,30.19,SE,126,5.0,9.0,94,0.00,,,0.00,,2013-01-08 16:53:00,
2013-01-08 11:03:00,56.0,55.0,30.18,SE,125,5.0,12.0,95,0.00,,,0.00,,2013-01-08 17:03:00,
2013-01-08 11:12:00,56.0,55.0,30.18,SE,125,5.0,12.0,95,0.00,,,0.00,,2013-01-08 17:12:00,
2013-01-08 11:23:00,57.0,56.0,30.18,SSE,148,6.0,13.0,96,0.00,,,0.00,,2013-01-08 17:23:00,
2013-01-08 11:33:00,58.0,57.0,30.18,SE,130,6.0,13.0,96,0.00,,,0.00,,2013-01-08 17:33:00,
2013-01-08 11:43:00,58.0,57.0,30.18,SE,130,6.0,13.0,96,0.00,,,0.00,,2013-01-08 17:43:00,
2013-01-08 11:53:00,58.0,57.0,30.16,SE,139,5.0,10.0,96,0.00,,,0.00,,2013-01-08 17:53:00,
2013-01-08 12:03:00,58.0,57.0,30.16,SE,128,6.0,10.0,95,0.00,,,0.00,,2013-01-08 18:03:00,
2013-01-08 12:12:00,58.0,57.0,30.16,SE,128,6.0,10.0,95,0.00,,,0.00,,2013-01-08 18:12:00,
2013-01-08 12:23:00,59.0,58.0,30.14,ESE,109,3.0,9.0,96,0.00,,,0.00,,2013-01-08 18:23:00,
2013-01-08 12:33:00,59.0,58.0,30.14,ESE,119,2.0,8.0,96,0.00,,,0.00,,2013-01-08 18:33:00,
2013-01-08 12:43:00,59.0,58.0,30.14,ESE,119,2.0,8.0,96,0.00,,,0.00,,2013-01-08 18:43:00,
2013-01-08 12:53:00,59.0,58.0,30.13,SE,145,5.0,7.0,96,0.00,,,0.00,,2013-01-08 18:53:00,
2013-01-08 13:03:00,59.0,58.0,30.10,SE,131,6.0,9.0,97,0.02,,,0.02,,2013-01-08 19:03:00,
2013-01-08 13:12:00,59.0,58.0,30.10,SE,131,6.0,9.0,97,0.02,,,0.02,,2013-01-08 19:12:00,
2013-01-08 13:22:00,58.0,57.0,30.09,NNE,30,3.0,8.0,97,0.04,,,0.04,,2013-01-08 19:22:00,
2013-01-08 13:32:00,58.0,57.0,30.09,ENE,72,5.0,10.0,98,0.04,,,0.04,,2013-01-08 19:32:00,
2013-01-08 13:42:00,58.0,57.0,30.09,ENE,72,5.0,10.0,98,0.04,,,0.04,,2013-01-08 19:42:00,
2013-01-08 13:53:00,59.0,58.0,30.09,ESE,122,5.0,9.0,98,0.05,,,0.05,,2013-01-08 19:53:00,
2013-01-08 14:02:00,60.0,59.0,30.09,SE,143,5.0,10.0,98,0.03,,,0.05,,2013-01-08 20:02:00,
2013-01-08 14:12:00,60.0,59.0,30.09,SE,143,5.0,10.0,98,0.03,,,0.05,,2013-01-08 20:12:00,
2013-01-08 14:23:00,60.0,59.0,30.06,ESE,111,5.0,9.0,98,0.01,,,0.05,,2013-01-08 20:23:00,
2013-01-08 14:33:00,60.0,59.0,30.07,ESE,116,5.0,9.0,97,0.01,,,0.05,,2013-01-08 20:33:00,
2013-01-08 14:43:00,60.0,59.0,30.07,ESE,116,5.0,9.0,97,0.01,,,0.05,,2013-01-08 20:43:00,
2013-01-08 14:53:00,61.0,60.0,30.07,ESE,115,3.0,12.0,97,0.00,,,0.05,,2013-01-08 20:53:00,
2013-01-08 15:02:00,61.0,60.0,30.07,East,89,3.0,10.0,98,0.00,,,0.05,,2013-01-08 21:02:00,
2013-01-08 15:12:00,61.0,60.0,30.07,East,89,3.0,10.0,98,0.00,,,0.05,,2013-01-08 21:12:00,
2013-01-08 15:22:00,61.0,60.0,30.06,SSE,162,6.0,14.0,98,0.00,,,0.05,,2013-01-08 21:22:00,
2013-01-08 15:33:00,61.0,60.0,30.06,SSE,153,7.0,13.0,98,0.00,,,0.05,,2013-01-08 21:33:00,
2013-01-08 15:43:00,61.0,60.0,30.06,SSE,153,7.0,13.0,98,0.00,,,0.05,,2013-01-08 21:43:00,
2013-01-08 15:53:00,62.0,61.0,30.06,NE,56,0.0,3.0,98,0.03,,,0.08,,2013-01-08 21:53:00,
2013-01-08 16:03:00,62.0,61.0,30.05,ESE,109,4.0,9.0,98,0.04,,,0.09,,2013-01-08 22:03:00,
2013-01-08 16:12:00,62.0,61.0,30.05,ESE,109,4.0,9.0,98,0.04,,,0.09,,2013-01-08 22:12:00,
2013-01-08 16:22:00,62.0,61.0,30.06,ESE,104,0.0,9.0,98,0.11,,,0.16,,2013-01-08 22:22:00,
2013-01-08 16:32:00,62.0,61.0,30.05,SE,136,9.0,13.0,98,0.15,,,0.20,,2013-01-08 22:32:00,
2013-01-08 16:42:00,62.0,61.0,30.05,SE,136,9.0,13.0,98,0.15,,,0.20,,2013-01-08 22:42:00,
2013-01-08 16:53:00,62.0,61.0,30.06,ESE,107,3.0,7.0,98,0.18,,,0.26,,2013-01-08 22:53:00,
2013-01-08 17:02:00,62.0,61.0,30.07,SSE,149,5.0,8.0,98,0.20,,,0.29,,2013-01-08 23:02:00,
2013-01-08 17:12:00,62.0,61.0,30.07,SSE,149,5.0,8.0,98,0.20,,,0.29,,2013-01-08 23:12:00,
2013-01-08 17:22:00,62.0,61.0,30.08,SE,135,5.0,8.0,98,0.18,,,0.34,,2013-01-08 23:22:00,
2013-01-08 17:32:00,62.0,61.0,30.08,SSE,160,7.0,12.0,98,0.16,,,0.36,,2013-01-08 23:32:00,
2013-01-08 17:43:00,62.0,61.0,30.08,SSE,160,7.0,12.0,98,0.16,,,0.36,,2013-01-08 23:43:00,
2013-01-08 17:53:00,62.0,61.0,30.08,SE,146,7.0,10.0,98,0.14,,,0.40,,2013-01-08 23:53:00,
2013-01-08 18:02:00,62.0,61.0,30.09,SSE,158,7.0,13.0,98,0.13,,,0.42,,2013-01-09 00:02:00,
2013-01-08 18:12:00,62.0,61.0,30.09,SSE,158,7.0,13.0,98,0.13,,,0.42,,2013-01-09 00:12:00,
2013-01-08 18:22:00,62.0,61.0,30.09,SSE,149,6.0,14.0,98,0.12,,,0.46,,2013-01-09 00:22:00,
2013-01-08 18:33:00,62.0,61.0,30.09,SE,140,6.0,9.0,98,0.12,,,0.48,,2013-01-09 00:33:00,
2013-01-08 18:42:00,62.0,61.0,30.09,SE,140,6.0,9.0,98,0.12,,,0.48,,2013-01-09 00:42:00,
2013-01-08 18:53:00,62.0,61.0,30.10,SE,141,4.0,8.0,98,0.12,,,0.52,,2013-01-09 00:53:00,
2013-01-08 19:02:00,62.0,61.0,30.11,SSE,154,1.0,6.0,98,0.12,,,0.54,,2013-01-09 01:02:00,
2013-01-08 19:12:00,62.0,61.0,30.11,SSE,154,1.0,6.0,98,0.12,,,0.54,,2013-01-09 01:12:00,
2013-01-08 19:22:00,62.0,61.0,30.11,SSE,148,3.0,8.0,98,0.12,,,0.58,,2013-01-09 01:22:00,
2013-01-08 19:32:00,62.0,61.0,30.11,SSE,148,0.0,3.0,98,0.12,,,0.60,,2013-01-09 01:32:00,
2013-01-08 19:42:00,62.0,61.0,30.11,SSE,148,0.0,3.0,98,0.12,,,0.60,,2013-01-09 01:42:00,
2013-01-08 19:52:00,62.0,61.0,30.11,SW,220,0.0,2.0,98,0.11,,,0.63,,2013-01-09 01:52:00,
2013-01-08 20:02:00,62.0,61.0,30.12,SSW,201,1.0,3.0,98,0.11,,,0.65,,2013-01-09 02:02:00,
2013-01-08 20:12:00,62.0,61.0,30.12,SSW,201,1.0,3.0,98,0.11,,,0.65,,2013-01-09 02:12:00,
2013-01-08 20:22:00,62.0,61.0,30.12,SE,134,5.0,9.0,98,0.11,,,0.69,,2013-01-09 02:22:00,
2013-01-08 20:32:00,62.0,61.0,30.13,SSE,149,5.0,10.0,98,0.12,,,0.72,,2013-01-09 02:32:00,
2013-01-08 20:42:00,62.0,61.0,30.13,SSE,149,5.0,10.0,98,0.12,,,0.72,,2013-01-09 02:42:00,
2013-01-08 20:53:00,63.0,62.0,30.13,SE,133,2.0,8.0,98,0.13,,,0.76,,2013-01-09 02:53:00,
2013-01-08 21:03:00,63.0,62.0,30.13,ESE,123,1.0,3.0,98,0.13,,,0.78,,2013-01-09 03:03:00,
2013-01-08 21:12:00,63.0,62.0,30.13,ESE,123,1.0,3.0,98,0.13,,,0.78,,2013-01-09 03:12:00,
2013-01-08 21:22:00,62.0,61.0,30.14,SE,128,2.0,5.0,98,0.13,,,0.82,,2013-01-09 03:22:00,
2013-01-08 21:33:00,62.0,61.0,30.14,SE,133,2.0,5.0,98,0.12,,,0.84,,2013-01-09 03:33:00,
2013-01-08 21:42:00,62.0,61.0,30.14,SE,133,2.0,5.0,98,0.12,,,0.84,,2013-01-09 03:42:00,
2013-01-08 21:53:00,62.0,61.0,30.14,SE,131,3.0,7.0,98,0.12,,,0.88,,2013-01-09 03:53:00,
2013-01-08 22:02:00,62.0,61.0,30.14,SE,145,2.0,7.0,98,0.12,,,0.90,,2013-01-09 04:02:00,
2013-01-08 22:12:00,62.0,61.0,30.14,SE,145,2.0,7.0,98,0.12,,,0.90,,2013-01-09 04:12:00,
2013-01-08 22:22:00,62.0,61.0,30.14,SE,140,3.0,8.0,98,0.11,,,0.93,,2013-01-09 04:22:00,
2013-01-08 22:32:00,62.0,61.0,30.14,SE,131,3.0,8.0,98,0.11,,,0.95,,2013-01-09 04:32:00,
2013-01-08 22:42:00,62.0,61.0,30.15,SE,133,4.0,9.0,98,0.10,,,0.98,,2013-01-09 04:42:00,
2013-01-08 22:52:00,62.0,61.0,30.15,SE,133,4.0,9.0,98,0.10,,,0.98,,2013-01-09 04:52:00,
2013-01-08 23:03:00,62.0,61.0,30.15,SE,124,2.0,8.0,98,0.10,,,1.00,,2013-01-09 05:03:00,
2013-01-08 23:12:00,62.0,61.0,30.15,SE,124,2.0,8.0,98,0.10,,,1.00,,2013-01-09 05:12:00,
2013-01-08 23:22:00,62.0,61.0,30.15,ESE,119,4.0,8.0,98,0.10,,,1.03,,2013-01-09 05:22:00,
2013-01-08 23:33:00,62.0,61.0,30.14,SE,134,3.0,8.0,98,0.10,,,1.05,,2013-01-09 05:33:00,
2013-01-08 23:42:00,62.0,61.0,30.14,SE,134,3.0,8.0,98,0.10,,,1.05,,2013-01-09 05:42:00,
2013-01-08 23:52:00,62.0,61.0,30.13,ESE,117,4.0,8.0,98,0.10,,,1.08,,2013-01-09 05:52:00,